Time,TemperatureF,DewpointF,PressureIn,WindDirection,WindDirectionDegrees,WindSpeedMPH,WindSpeedGustMPH,Humidity,HourlyPrecipIn,Conditions,Clouds,dailyrainin,SoftwareType,DateUTC
2013-04-29 00:05:00,75.2,71.4,29.90,NE,45,6.9,9.8,88,0.00,,,0.00,pywws,2013-04-28 14:05:00,
2013-04-29 00:15:00,75.6,71.4,29.90,South,180,0.7,1.6,87,0.00,,,0.00,pywws,2013-04-28 14:15:00,
2013-04-29 00:25:00,75.7,71.6,29.89,North,0,3.8,6.0,87,0.00,,,0.00,pywws,2013-04-28 14:25:00,
2013-04-29 00:35:00,75.0,71.5,29.90,North,0,1.6,3.8,89,0.00,,,0.00,pywws,2013-04-28 14:35:00,
2013-04-29 00:45:00,74.8,71.4,29.90,NE,45,2.2,4.5,89,0.00,,,0.00,pywws,2013-04-28 14:45:00,
2013-04-29 00:55:00,74.8,71.4,29.89,SW,225,1.6,3.1,89,0.00,,,0.00,pywws,2013-04-28 14:55:00,
2013-04-29 01:05:00,75.2,71.1,29.89,NE,45,3.1,7.6,87,0.00,,,0.00,pywws,2013-04-28 15:05:00,
2013-04-29 01:15:00,75.6,71.4,29.90,North,0,8.3,15.9,87,0.00,,,0.00,pywws,2013-04-28 15:15:00,
2013-04-29 01:25:00,74.8,71.0,29.89,NE,45,8.3,17.5,88,0.00,,,0.00,pywws,2013-04-28 15:25:00,
2013-04-29 01:35:00,75.0,70.9,29.90,SE,135,2.2,3.1,87,0.00,,,0.00,pywws,2013-04-28 15:35:00,
2013-04-29 01:45:00,75.0,70.5,29.88,North,0,2.2,3.8,86,0.00,,,0.00,pywws,2013-04-28 15:45:00,
2013-04-29 01:55:00,75.0,70.5,29.89,North,0,2.2,3.8,86,0.00,,,0.00,pywws,2013-04-28 15:55:00,
2013-04-29 02:05:00,75.2,70.0,29.89,NE,45,6.0,11.4,84,0.01,,,0.01,pywws,2013-04-28 16:05:00,
2013-04-29 02:15:00,73.0,69.6,29.89,South,180,3.1,4.5,89,0.02,,,0.02,pywws,2013-04-28 16:15:00,
2013-04-29 02:25:00,72.3,69.5,29.89,South,180,0.7,1.6,91,0.02,,,0.02,pywws,2013-04-28 16:25:00,
2013-04-29 02:35:00,72.0,69.8,29.88,East,90,0.7,2.2,93,0.02,,,0.02,pywws,2013-04-28 16:35:00,
2013-04-29 02:45:00,72.1,70.0,29.88,NNE,22,1.6,3.8,93,0.04,,,0.04,pywws,2013-04-28 16:45:00,
2013-04-29 02:55:00,72.1,70.0,29.88,North,0,0.0,0.7,93,0.04,,,0.04,pywws,2013-04-28 16:55:00,
2013-04-29 03:05:00,71.2,69.7,29.89,NE,45,2.2,3.1,95,0.08,,,0.09,pywws,2013-04-28 17:05:00,
2013-04-29 03:15:00,70.7,69.8,29.89,NE,45,0.7,2.2,97,0.08,,,0.11,pywws,2013-04-28 17:15:00,
2013-04-29 03:25:00,70.5,69.9,29.88,SE,135,0.0,1.6,98,0.08,,,0.11,pywws,2013-04-28 17:25:00,
2013-04-29 03:35:00,70.5,69.9,29.88,West,270,1.6,2.2,98,0.08,,,0.11,pywws,2013-04-28 17:35:00,
2013-04-29 03:45:00,70.7,70.1,29.88,NE,45,0.7,1.6,98,0.07,,,0.11,pywws,2013-04-28 17:45:00,
2013-04-29 03:55:00,70.9,70.3,29.88,NE,45,0.0,1.6,98,0.07,,,0.11,pywws,2013-04-28 17:55:00,
2013-04-29 04:05:00,71.4,70.5,29.87,NE,45,0.7,3.1,97,0.01,,,0.11,pywws,2013-04-28 18:05:00,
2013-04-29 04:15:00,72.5,70.7,29.87,East,90,0.7,3.8,94,0.00,,,0.11,pywws,2013-04-28 18:15:00,
2013-04-29 04:25:00,72.5,70.4,29.88,NE,45,1.6,2.2,93,0.00,,,0.11,pywws,2013-04-28 18:25:00,
2013-04-29 04:35:00,72.1,70.0,29.88,SE,135,0.7,1.6,93,0.00,,,0.11,pywws,2013-04-28 18:35:00,
2013-04-29 04:45:00,71.8,70.0,29.88,NE,45,0.7,2.2,94,0.00,,,0.11,pywws,2013-04-28 18:45:00,
2013-04-29 04:55:00,71.6,70.1,29.88,SW,225,0.0,1.6,95,0.00,,,0.11,pywws,2013-04-28 18:55:00,
2013-04-29 05:05:00,72.0,70.1,29.89,SE,135,0.0,0.7,94,0.00,,,0.11,pywws,2013-04-28 19:05:00,
2013-04-29 05:15:00,72.3,70.2,29.89,SW,225,0.0,0.7,93,0.00,,,0.11,pywws,2013-04-28 19:15:00,
2013-04-29 05:25:00,72.0,69.8,29.89,NE,45,2.2,5.4,93,0.00,,,0.11,pywws,2013-04-28 19:25:00,
2013-04-29 05:35:00,72.3,70.2,29.89,East,90,2.2,5.4,93,0.00,,,0.11,pywws,2013-04-28 19:35:00,
2013-04-29 05:45:00,72.7,70.2,29.90,NE,45,1.6,3.8,92,0.00,,,0.11,pywws,2013-04-28 19:45:00,
2013-04-29 05:55:00,72.1,70.0,29.89,NE,45,1.6,3.1,93,0.00,,,0.11,pywws,2013-04-28 19:55:00,
2013-04-29 06:05:00,73.0,70.6,29.90,NE,45,0.7,3.8,92,0.00,,,0.11,pywws,2013-04-28 20:05:00,
2013-04-29 06:15:00,73.6,70.8,29.90,NE,45,3.1,5.4,91,0.00,,,0.11,pywws,2013-04-28 20:15:00,
2013-04-29 06:25:00,73.6,70.8,29.90,NE,45,3.1,5.4,91,0.00,,,0.11,pywws,2013-04-28 20:25:00,
2013-04-29 06:35:00,73.6,70.8,29.91,NE,45,3.1,4.5,91,0.00,,,0.11,pywws,2013-04-28 20:35:00,
2013-04-29 06:45:00,74.3,70.8,29.91,NE,45,5.4,8.3,89,0.01,,,0.12,pywws,2013-04-28 20:45:00,
2013-04-29 06:55:00,74.5,70.7,29.91,West,270,1.6,2.2,88,0.01,,,0.12,pywws,2013-04-28 20:55:00,
2013-04-29 07:05:00,75.2,70.7,29.91,NE,45,3.1,6.0,86,0.01,,,0.12,pywws,2013-04-28 21:05:00,
2013-04-29 07:15:00,75.4,70.5,29.92,East,90,0.7,3.1,85,0.01,,,0.12,pywws,2013-04-28 21:15:00,
2013-04-29 07:25:00,75.6,70.4,29.92,NE,45,3.1,5.4,84,0.01,,,0.12,pywws,2013-04-28 21:25:00,
2013-04-29 07:35:00,76.6,70.7,29.93,NE,45,4.5,6.9,82,0.01,,,0.12,pywws,2013-04-28 21:35:00,
2013-04-29 07:45:00,77.0,70.7,29.93,East,90,0.7,2.2,81,0.00,,,0.12,pywws,2013-04-28 21:45:00,
2013-04-29 07:55:00,77.7,71.4,29.93,East,90,2.2,6.0,81,0.00,,,0.12,pywws,2013-04-28 21:55:00,
2013-04-29 08:05:00,77.2,70.5,29.93,NE,45,5.4,7.6,80,0.00,,,0.12,pywws,2013-04-28 22:05:00,
2013-04-29 08:15:00,79.5,71.7,29.93,East,90,6.9,9.8,77,0.00,,,0.12,pywws,2013-04-28 22:15:00,
2013-04-29 08:25:00,80.4,72.1,29.93,NE,45,4.5,6.9,76,0.00,,,0.12,pywws,2013-04-28 22:25:00,
2013-04-29 08:35:00,81.1,72.0,29.94,NNE,22,3.8,6.9,74,0.00,,,0.12,pywws,2013-04-28 22:35:00,
2013-04-29 08:45:00,81.9,72.7,29.94,NW,315,1.6,5.4,74,0.00,,,0.12,pywws,2013-04-28 22:45:00,
2013-04-29 08:55:00,81.9,72.7,29.94,NW,315,2.2,3.8,74,0.00,,,0.12,pywws,2013-04-28 22:55:00,
2013-04-29 09:05:00,82.0,72.9,29.94,NE,45,8.3,12.1,74,0.00,,,0.12,pywws,2013-04-28 23:05:00,
2013-04-29 09:15:00,80.6,71.9,29.94,SE,135,8.3,15.9,75,0.00,,,0.12,pywws,2013-04-28 23:15:00,
2013-04-29 09:25:00,82.0,72.9,29.94,East,90,3.1,6.0,74,0.00,,,0.12,pywws,2013-04-28 23:25:00,
2013-04-29 09:35:00,83.3,73.3,29.95,North,0,3.8,6.9,72,0.00,,,0.12,pywws,2013-04-28 23:35:00,
2013-04-29 09:45:00,82.9,73.0,29.95,NE,45,5.4,9.8,72,0.00,,,0.12,pywws,2013-04-28 23:45:00,
2013-04-29 09:55:00,82.0,72.5,29.95,NE,45,9.8,12.1,73,0.00,,,0.12,pywws,2013-04-28 23:55:00,
2013-04-29 10:05:00,83.5,73.5,29.94,NNE,22,3.8,6.9,72,0.00,,,0.12,pywws,2013-04-29 00:05:00,
2013-04-29 10:15:00,84.0,73.2,29.94,SE,135,6.9,9.8,70,0.00,,,0.12,pywws,2013-04-29 00:15:00,
2013-04-29 10:25:00,82.6,72.2,29.93,SE,135,0.7,2.2,71,0.00,,,0.12,pywws,2013-04-29 00:25:00,
2013-04-29 10:35:00,81.7,72.2,29.94,North,0,4.5,9.2,73,0.00,,,0.12,pywws,2013-04-29 00:35:00,
2013-04-29 10:45:00,84.7,73.8,29.93,North,0,3.8,7.6,70,0.00,,,0.12,pywws,2013-04-29 00:45:00,
2013-04-29 10:55:00,84.6,73.2,29.93,NE,45,6.0,8.3,69,0.00,,,0.12,pywws,2013-04-29 00:55:00,
2013-04-29 11:05:00,83.3,72.9,29.92,NE,45,6.0,9.8,71,0.00,,,0.12,pywws,2013-04-29 01:05:00,
2013-04-29 11:15:00,82.4,72.9,29.91,NE,45,6.0,11.4,73,0.00,,,0.12,pywws,2013-04-29 01:15:00,
2013-04-29 11:25:00,84.0,73.6,29.91,NE,45,3.1,6.9,71,0.00,,,0.12,pywws,2013-04-29 01:25:00,
2013-04-29 11:35:00,84.7,73.4,29.90,NE,45,2.2,5.4,69,0.00,,,0.12,pywws,2013-04-29 01:35:00,
2013-04-29 11:45:00,85.8,74.0,29.90,North,0,6.0,7.6,68,0.00,,,0.12,pywws,2013-04-29 01:45:00,
2013-04-29 11:55:00,85.5,74.1,29.89,NE,45,3.8,7.6,69,0.00,,,0.12,pywws,2013-04-29 01:55:00,
2013-04-29 12:05:00,85.6,73.8,29.89,NE,45,9.2,13.6,68,0.00,,,0.12,pywws,2013-04-29 02:05:00,
2013-04-29 12:15:00,84.4,73.1,29.88,NW,315,6.0,9.8,69,0.00,,,0.12,pywws,2013-04-29 02:15:00,
2013-04-29 12:25:00,85.1,73.8,29.88,NE,45,10.7,13.6,69,0.00,,,0.12,pywws,2013-04-29 02:25:00,
2013-04-29 12:35:00,83.1,73.5,29.88,North,0,2.2,4.5,73,0.00,,,0.12,pywws,2013-04-29 02:35:00,
2013-04-29 12:45:00,83.5,73.9,29.87,NE,45,4.5,8.3,73,0.00,,,0.12,pywws,2013-04-29 02:45:00,
2013-04-29 12:55:00,83.7,74.5,29.86,NE,45,7.6,9.8,74,0.00,,,0.12,pywws,2013-04-29 02:55:00,
2013-04-29 13:05:00,84.6,74.5,29.87,North,0,6.0,10.7,72,0.00,,,0.12,pywws,2013-04-29 03:05:00,
2013-04-29 13:15:00,85.6,75.1,29.86,WSW,248,6.0,9.8,71,0.00,,,0.12,pywws,2013-04-29 03:15:00,
2013-04-29 13:25:00,83.1,74.0,29.87,NE,45,6.0,8.3,74,0.00,,,0.12,pywws,2013-04-29 03:25:00,
2013-04-29 13:35:00,82.2,73.9,29.86,NE,45,6.0,9.2,76,0.00,,,0.12,pywws,2013-04-29 03:35:00,
2013-04-29 13:45:00,83.5,74.3,29.86,NE,45,5.4,7.6,74,0.00,,,0.12,pywws,2013-04-29 03:45:00,
2013-04-29 13:55:00,83.7,74.5,29.86,East,90,5.4,8.3,74,0.00,,,0.12,pywws,2013-04-29 03:55:00,
2013-04-29 14:05:00,82.9,74.2,29.85,NE,45,7.6,11.4,75,0.00,,,0.12,pywws,2013-04-29 04:05:00,
2013-04-29 14:06:00,82.6,73.8,29.85,NE,45,6.0,9.8,75,0.00,,,0.12,pywws,2013-04-29 04:06:00,
2013-04-29 14:07:00,82.6,73.8,29.86,East,90,7.6,10.7,75,0.00,,,0.12,pywws,2013-04-29 04:07:00,
2013-04-29 14:15:00,81.9,73.5,29.85,NE,45,3.8,6.0,76,0.00,,,0.12,pywws,2013-04-29 04:15:00,
2013-04-29 14:25:00,82.0,73.7,29.85,NNE,22,3.8,6.9,76,0.00,,,0.12,pywws,2013-04-29 04:25:00,
2013-04-29 14:35:00,84.9,74.9,29.85,NE,45,7.6,10.7,72,0.00,,,0.12,pywws,2013-04-29 04:35:00,
2013-04-29 14:36:00,85.5,75.4,29.85,ENE,68,6.0,9.8,72,0.00,,,0.12,pywws,2013-04-29 04:36:00,
2013-04-29 14:45:00,85.3,74.8,29.85,NE,45,8.3,14.5,71,0.00,,,0.12,pywws,2013-04-29 04:45:00,
2013-04-29 14:55:00,82.6,73.4,29.85,North,0,5.4,7.6,74,0.00,,,0.12,pywws,2013-04-29 04:55:00,
2013-04-29 15:05:00,80.4,73.3,29.85,North,0,4.5,9.2,79,0.00,,,0.12,pywws,2013-04-29 05:05:00,
2013-04-29 15:15:00,80.1,73.3,29.85,NE,45,5.4,6.9,80,0.00,,,0.12,pywws,2013-04-29 05:15:00,
2013-04-29 15:25:00,80.1,72.9,29.85,East,90,6.9,10.7,79,0.00,,,0.12,pywws,2013-04-29 05:25:00,
2013-04-29 15:35:00,79.9,73.1,29.85,East,90,4.5,6.9,80,0.00,,,0.12,pywws,2013-04-29 05:35:00,
2013-04-29 15:45:00,79.3,72.6,29.86,NE,45,6.0,8.3,80,0.00,,,0.12,pywws,2013-04-29 05:45:00,
2013-04-29 15:55:00,79.0,73.0,29.87,East,90,3.1,5.4,82,0.00,,,0.12,pywws,2013-04-29 05:55:00,
2013-04-29 16:05:00,79.0,73.0,29.86,NE,45,4.5,6.0,82,0.00,,,0.12,pywws,2013-04-29 06:05:00,
2013-04-29 16:15:00,80.4,74.0,29.86,East,90,0.7,2.2,81,0.00,,,0.12,pywws,2013-04-29 06:15:00,
2013-04-29 16:25:00,81.3,73.4,29.86,NNE,22,4.5,6.9,77,0.00,,,0.12,pywws,2013-04-29 06:25:00,
2013-04-29 16:35:00,80.1,72.9,29.87,NE,45,5.4,8.3,79,0.00,,,0.12,pywws,2013-04-29 06:35:00,
2013-04-29 16:45:00,79.3,72.6,29.87,NE,45,7.6,12.1,80,0.00,,,0.12,pywws,2013-04-29 06:45:00,
2013-04-29 16:55:00,79.3,72.6,29.87,NW,315,0.7,1.6,80,0.00,,,0.12,pywws,2013-04-29 06:55:00,
2013-04-29 17:05:00,79.3,72.2,29.87,North,0,3.1,6.9,79,0.00,,,0.12,pywws,2013-04-29 07:05:00,
2013-04-29 17:15:00,79.3,72.6,29.88,NE,45,3.8,5.4,80,0.00,,,0.12,pywws,2013-04-29 07:15:00,
2013-04-29 17:25:00,79.2,72.4,29.88,SW,225,2.2,5.4,80,0.00,,,0.12,pywws,2013-04-29 07:25:00,
2013-04-29 17:35:00,79.0,72.3,29.88,North,0,2.2,4.5,80,0.00,,,0.12,pywws,2013-04-29 07:35:00,
2013-04-29 17:45:00,78.8,72.5,29.88,ENE,68,1.6,3.1,81,0.00,,,0.12,pywws,2013-04-29 07:45:00,
2013-04-29 17:55:00,78.4,72.8,29.89,NE,45,1.6,6.0,83,0.00,,,0.12,pywws,2013-04-29 07:55:00,
2013-04-29 18:05:00,78.4,72.8,29.89,NE,45,5.4,7.6,83,0.00,,,0.12,pywws,2013-04-29 08:05:00,
2013-04-29 18:15:00,78.4,72.8,29.89,NNE,22,3.1,3.8,83,0.00,,,0.12,pywws,2013-04-29 08:15:00,
2013-04-29 18:25:00,78.4,72.8,29.89,North,0,3.1,4.5,83,0.00,,,0.12,pywws,2013-04-29 08:25:00,
2013-04-29 18:35:00,78.6,72.6,29.89,NE,45,2.2,5.4,82,0.00,,,0.12,pywws,2013-04-29 08:35:00,
2013-04-29 18:45:00,78.6,72.6,29.90,NE,45,8.3,12.1,82,0.00,,,0.12,pywws,2013-04-29 08:45:00,
2013-04-29 18:55:00,78.4,72.8,29.90,North,0,2.2,9.2,83,0.00,,,0.12,pywws,2013-04-29 08:55:00,
2013-04-29 19:05:00,78.3,72.7,29.90,East,90,3.1,6.0,83,0.00,,,0.12,pywws,2013-04-29 09:05:00,
2013-04-29 19:15:00,78.1,72.5,29.90,NE,45,2.2,5.4,83,0.00,,,0.12,pywws,2013-04-29 09:15:00,
2013-04-29 19:25:00,78.4,72.8,29.90,NNE,22,2.2,4.5,83,0.00,,,0.12,pywws,2013-04-29 09:25:00,
2013-04-29 19:35:00,78.4,72.8,29.91,North,0,1.6,3.1,83,0.00,,,0.12,pywws,2013-04-29 09:35:00,
2013-04-29 19:45:00,78.6,73.0,29.91,NE,45,3.8,6.9,83,0.00,,,0.12,pywws,2013-04-29 09:45:00,
2013-04-29 19:55:00,78.6,73.0,29.91,SE,135,2.2,5.4,83,0.00,,,0.12,pywws,2013-04-29 09:55:00,
2013-04-29 20:05:00,78.6,73.0,29.92,East,90,5.4,12.1,83,0.00,,,0.12,pywws,2013-04-29 10:05:00,
2013-04-29 20:15:00,77.9,73.0,29.91,NE,45,5.4,8.3,85,0.00,,,0.12,pywws,2013-04-29 10:15:00,
2013-04-29 20:25:00,77.9,73.0,29.92,North,0,2.2,3.8,85,0.00,,,0.12,pywws,2013-04-29 10:25:00,
2013-04-29 20:35:00,78.3,73.0,29.92,NE,45,8.3,11.4,84,0.00,,,0.12,pywws,2013-04-29 10:35:00,
2013-04-29 20:45:00,78.4,73.2,29.93,South,180,2.2,4.5,84,0.00,,,0.12,pywws,2013-04-29 10:45:00,
2013-04-29 20:55:00,77.5,73.0,29.93,NE,45,3.1,6.0,86,0.00,,,0.12,pywws,2013-04-29 10:55:00,
2013-04-29 21:05:00,76.6,73.1,29.93,NE,45,1.6,2.2,89,0.00,,,0.12,pywws,2013-04-29 11:05:00,
2013-04-29 21:15:00,77.0,72.8,29.93,East,90,1.6,3.1,87,0.00,,,0.12,pywws,2013-04-29 11:15:00,
2013-04-29 21:25:00,77.7,73.2,29.92,North,0,6.0,13.0,86,0.00,,,0.12,pywws,2013-04-29 11:25:00,
2013-04-29 21:35:00,78.1,73.2,29.92,NNE,22,5.4,9.2,85,0.00,,,0.12,pywws,2013-04-29 11:35:00,
2013-04-29 21:45:00,78.1,72.8,29.92,East,90,9.2,13.0,84,0.00,,,0.12,pywws,2013-04-29 11:45:00,
2013-04-29 21:55:00,78.3,73.4,29.92,North,0,6.9,13.0,85,0.00,,,0.12,pywws,2013-04-29 11:55:00,
2013-04-29 22:05:00,78.1,72.8,29.92,NE,45,3.1,5.4,84,0.00,,,0.12,pywws,2013-04-29 12:05:00,
2013-04-29 22:15:00,78.1,73.2,29.92,NNE,22,8.3,10.7,85,0.00,,,0.12,pywws,2013-04-29 12:15:00,
2013-04-29 22:25:00,78.1,73.2,29.91,East,90,1.6,3.8,85,0.00,,,0.12,pywws,2013-04-29 12:25:00,
2013-04-29 22:35:00,77.7,73.2,29.92,North,0,2.2,4.5,86,0.00,,,0.12,pywws,2013-04-29 12:35:00,
2013-04-29 22:45:00,76.3,73.1,29.91,NNE,22,3.8,8.3,90,0.01,,,0.13,pywws,2013-04-29 12:45:00,
2013-04-29 22:55:00,75.9,73.1,29.91,West,270,1.6,3.8,91,0.01,,,0.13,pywws,2013-04-29 12:55:00,
2013-04-29 23:05:00,76.3,73.5,29.91,NE,45,4.5,7.6,91,0.01,,,0.13,pywws,2013-04-29 13:05:00,
2013-04-29 23:15:00,75.9,73.1,29.92,North,0,3.8,6.9,91,0.01,,,0.13,pywws,2013-04-29 13:15:00,
2013-04-29 23:25:00,74.8,73.3,29.91,NE,45,3.1,5.4,95,0.02,,,0.14,pywws,2013-04-29 13:25:00,
2013-04-29 23:35:00,74.7,73.4,29.90,NE,45,1.6,3.8,96,0.02,,,0.14,pywws,2013-04-29 13:35:00,
2013-04-29 23:45:00,75.0,73.5,29.90,NE,45,3.1,6.9,95,0.02,,,0.15,pywws,2013-04-29 13:45:00,
2013-04-29 23:55:00,75.2,73.3,29.90,NE,45,1.6,5.4,94,0.02,,,0.15,pywws,2013-04-29 13:55:00,